ISS (ZARYA) (25544 NORAD) Tracking and Keplerian Element Data

This shows tracking and keplerian element data for the satellite.

Feedback or suggestion? Click here.




ElementValue
Catalog25544
NameISS (ZARYA)
Epoch Orbit45714
Epoch Day160.12746734
Epoch Year2024
RAAN0.1752
Inclination51.6396
Eccentricity0.0005994
Argument of Perigee288.7618
Mean Anonmoly171.3879
Mean Motion15.51020515
Decay Rate0.00022839
L11 25544U 98067A 24160.12746734 .00022839 00000+0 39242-3 0 9993
L22 25544 51.6396 0.1752 0005994 288.7618 171.3879 15.51020515457146



Live tracking and technical data element details for ISS (ZARYA) (NORAD 25544). ISS (ZARYA) can be tracked NOW for your location showing map with azimuth and elevation plus other details from your city location.







IsCatalogInMostPopularTable: catalog: 25544, numindb: 156788
Update: records affected: 1



GetName: 25544 ISS (ZARYA)

Hit Count: updated at: Tue, 17 Sep 2024 12:04:20 GMT